Regional Weather Roundup
Issued by NWS

Home | Current Version | Previous Version | Graphics & Text | Print | Product List | Glossary On
Versions: 1 2 3 4 5 6 7 8 9 10 11 12 13 14 15 16 17 18 19 20 21 22 23 24 25 26 27 28 29 30 31 32 33 34 35 36 37 38 39 40 41 42 43 44 45 46 47 48 49 50
602
ASUS43 KLMK 291210
RWRKY
KENTUCKY REGIONAL WEATHER ROUNDUP
NATIONAL WEATHER SERVICE LOUISVILLE KY
800 AM EDT FRI JUL 29 2016

NOTE "FAIR" INDICATES FEW OR NO CLOUDS BELOW 12,000 FEET
WITH NO SIGNIFICANT WEATHER AND/OR OBSTRUCTIONS TO VISIBILITY.

KYZ001>023-026-027-061>063-070>075-291300-
WESTERN AND SOUTH CENTRAL KENTUCKY

CITY           SKY/WX    TMP DP  RH WIND       PRES   REMARKS
PADUCAH        SUNNY     74  71  91 S3        29.92R
HENDERSON      MOSUNNY   72  68  88 CALM      29.92S
OWENSBORO      PTSUNNY   74  73  96 S6        29.94S
HOPKINSVILLE   CLOUDY    76  74  93 S5        29.95R
BOWLING GREEN  CLOUDY    74  71  91 SW5       29.96R
GLASGOW        MOSUNNY   73  73 100 SW3       29.97R
$$

KYZ024-025-028>034-038-045-046-053-291300-
NORTH CENTRAL KENTUCKY

CITY           SKY/WX    TMP DP  RH WIND       PRES   REMARKS
LOUISVILLE/SDF CLOUDY    74  70  87 CALM      29.94R
LOUISVILLE/LOU MOSUNNY   74  70  87 CALM      29.95R
FORT KNOX      PTSUNNY   71  69  93 S5        29.93S
$$

KYZ035>037-039>044-047>052-055>060-089>105-291300-
NORTHEAST KENTUCKY

CITY           SKY/WX    TMP DP  RH WIND       PRES   REMARKS
LEXINGTON      CLOUDY    73  70  90 S6        29.97R
COVINGTON      PTSUNNY   72  72 100 S5        29.96R FOG
FRANKFORT      PTSUNNY   73  70  90 SW7       29.95R
$$

KYZ054-064>069-076>088-106>120-291300-
SOUTHEAST KENTUCKY

CITY           SKY/WX    TMP DP  RH WIND       PRES   REMARKS
JACKSON        CLOUDY    70  69  97 CALM      30.01R FOG
LONDON         HVY RAIN  70  67  90 CALM      30.02R FOG
SOMERSET       CLOUDY    70  70 100 CALM      30.01R
MIDDLESBORO    CLOUDY    67  67 100 CALM      30.03R
MONTICELLO     CLOUDY   N/A N/A N/A N8        30.00S
$$





USA.gov is the U.S. government's official web portal to all federal, state and local government web resources and services.